Powrót do katalogu

STARLINK-4740

AktywnyŁącznośćVLEO
NORAD 53871·PAYLOAD·🇺🇸 United States

Wystrzelony Sep 19, 2022 z Cape Canaveral Space Force Station

Loading…

Następne Przeloty (najbliższe 24 godziny)

TLE

ŚwieżeSource: CelesTrak SupGP

Epoka: Sep 15, 2026, 02:03 UTC

1 53871C 22114BF  26258.08590278  .00048709  00000+0  14390-2 0  2580
2 53871  53.1574 118.9625 0001415  82.3154  95.2594 15.34368442    12

Śledź STARLINK-4740 w czasie rzeczywistym z AllMySat

Download on the App Store